LVS073 SADF-SABR

Flight info

Callsign LVS073
Flight time N/A
Altitude 5000
Route DCT BRA
Aircraft BR23/L-SFG/C

Departure

Time 2026-04-28 19:17
Airport San Fernando Airport (SADF)

Arrival

Time N/A
Airport SABR
Time Latitude Longitude Altitude Speed Heading
2026-04-28 19:12 -34.45656 -58.58665 22 ft 0 kts 333°
2026-04-28 19:13 -34.45637 -58.58684 17 ft 9 kts 273°
2026-04-28 19:13 -34.45657 -58.58736 22 ft 6 kts 239°
2026-04-28 19:13 -34.45678 -58.58787 22 ft 17 kts 249°
2026-04-28 19:14 -34.45728 -58.58907 22 ft 12 kts 238°
2026-04-28 19:14 -34.45815 -58.59110 22 ft 30 kts 249°
2026-04-28 19:14 -34.45859 -58.59211 22 ft 19 kts 233°
2026-04-28 19:14 -34.45924 -58.59365 22 ft 13 kts 242°
2026-04-28 19:15 -34.45973 -58.59471 22 ft 12 kts 243°
2026-04-28 19:15 -34.46004 -58.59544 22 ft 8 kts 239°
2026-04-28 19:15 -34.46030 -58.59616 22 ft 22 kts 267°
2026-04-28 19:15 -34.45960 -58.59683 22 ft 10 kts 24°
2026-04-28 19:16 -34.45931 -58.59648 22 ft 0 kts 47°
2026-04-28 19:16 -34.45894 -58.59611 22 ft 31 kts 42°
2026-04-28 19:16 -34.45641 -58.59304 71 ft 69 kts 32°
2026-04-28 19:16 -34.45258 -58.58849 245 ft 78 kts 35°
2026-04-28 19:17 -34.44872 -58.58398 524 ft 78 kts 33°
2026-04-28 19:17 -34.44483 -58.57954 819 ft 73 kts 13°
2026-04-28 19:17 -34.44030 -58.58048 1089 ft 66 kts 329°
2026-04-28 19:17 -34.43540 -58.58359 1046 ft 89 kts 323°
2026-04-28 19:18 -34.43041 -58.58774 1033 ft 86 kts 318°
2026-04-28 19:18 -34.42569 -58.59234 1034 ft 86 kts 318°
2026-04-28 19:18 -34.42108 -58.59680 1031 ft 86 kts 318°
2026-04-28 19:18 -34.41641 -58.60124 1033 ft 84 kts 318°
2026-04-28 19:19 -34.41187 -58.60557 1033 ft 83 kts 318°
2026-04-28 19:19 -34.40735 -58.60987 1033 ft 82 kts 318°
2026-04-28 19:19 -34.40283 -58.61411 1033 ft 82 kts 318°
2026-04-28 19:19 -34.39831 -58.61835 1036 ft 82 kts 317°
2026-04-28 19:20 -34.39392 -58.62276 1028 ft 81 kts 307°
2026-04-28 19:20 -34.39175 -58.62910 1032 ft 85 kts 282°
2026-04-28 19:20 -34.39261 -58.63640 1032 ft 92 kts 253°
2026-04-28 19:20 -34.39667 -58.64261 1033 ft 95 kts 235°
2026-04-28 19:21 -34.40111 -58.64868 1030 ft 97 kts 236°
2026-04-28 19:21 -34.40561 -58.65479 1029 ft 97 kts 238°
2026-04-28 19:21 -34.41000 -58.66069 1033 ft 94 kts 237°
2026-04-28 19:21 -34.41429 -58.66651 1030 ft 92 kts 237°
2026-04-28 19:22 -34.41857 -58.67231 1028 ft 92 kts 239°
2026-04-28 19:22 -34.42148 -58.67627 1029 ft 95 kts 238°
2026-04-28 19:22 -34.42721 -58.68397 1273 ft 84 kts 236°
2026-04-28 19:22 -34.43085 -58.68890 1646 ft 76 kts 240°
2026-04-28 19:23 -34.43440 -58.69367 1980 ft 77 kts 238°
2026-04-28 19:23 -34.43790 -58.69847 2293 ft 76 kts 239°
2026-04-28 19:23 -34.44140 -58.70318 2635 ft 74 kts 238°
2026-04-28 19:23 -34.44475 -58.70771 2944 ft 71 kts 238°
2026-04-28 19:24 -34.44796 -58.71202 3299 ft 68 kts 238°
2026-04-28 19:24 -34.45104 -58.71623 3578 ft 67 kts 238°
2026-04-28 19:24 -34.45415 -58.72045 3856 ft 67 kts 237°
2026-04-28 19:24 -34.45722 -58.72462 4148 ft 65 kts 237°
2026-04-28 19:25 -34.46022 -58.72870 4433 ft 64 kts 236°
2026-04-28 19:25 -34.46320 -58.73274 4705 ft 64 kts 236°
2026-04-28 19:25 -34.46617 -58.73678 4969 ft 65 kts 236°
2026-04-28 19:25 -34.46960 -58.74152 5009 ft 82 kts 234°
2026-04-28 19:26 -34.47329 -58.74654 5008 ft 84 kts 234°
2026-04-28 19:26 -34.47729 -58.75197 5007 ft 86 kts 234°
2026-04-28 19:26 -34.48124 -58.75735 5010 ft 86 kts 234°
2026-04-28 19:26 -34.48522 -58.76274 5006 ft 85 kts 234°
2026-04-28 19:27 -34.48915 -58.76811 5004 ft 86 kts 234°
2026-04-28 19:27 -34.49316 -58.77353 5002 ft 86 kts 234°
2026-04-28 19:27 -34.49720 -58.77901 5003 ft 88 kts 234°
2026-04-28 19:27 -34.50124 -58.78449 5004 ft 86 kts 234°
2026-04-28 19:28 -34.50523 -58.78992 5001 ft 87 kts 234°
2026-04-28 19:28 -34.50920 -58.79532 5002 ft 87 kts 234°
2026-04-28 19:28 -34.51325 -58.80087 4999 ft 87 kts 234°
2026-04-28 19:28 -34.51726 -58.80629 4992 ft 87 kts 234°
2026-04-28 19:29 -34.52129 -58.81176 4989 ft 87 kts 234°
2026-04-28 19:29 -34.52399 -58.81544 4991 ft 86 kts 234°
2026-04-28 19:29 -34.52936 -58.82273 4991 ft 88 kts 234°
2026-04-28 19:29 -34.53346 -58.82833 4985 ft 88 kts 234°
2026-04-28 19:30 -34.53748 -58.83380 4989 ft 86 kts 234°
2026-04-28 19:30 -34.54144 -58.83918 4989 ft 85 kts 234°
2026-04-28 19:30 -34.54537 -58.84454 4989 ft 85 kts 234°
2026-04-28 19:30 -34.54933 -58.84994 4988 ft 86 kts 234°
2026-04-28 19:31 -34.55328 -58.85533 4988 ft 87 kts 235°
2026-04-28 19:31 -34.55731 -58.86078 4987 ft 86 kts 234°
2026-04-28 19:31 -34.56127 -58.86619 4986 ft 86 kts 234°
2026-04-28 19:31 -34.56527 -58.87159 4986 ft 87 kts 234°
2026-04-28 19:32 -34.56927 -58.87708 4984 ft 87 kts 234°
2026-04-28 19:32 -34.57328 -58.88256 4986 ft 86 kts 234°
2026-04-28 19:32 -34.57726 -58.88800 4985 ft 86 kts 233°
2026-04-28 19:32 -34.58123 -58.89344 4985 ft 86 kts 234°
2026-04-28 19:33 -34.58529 -58.89894 4987 ft 88 kts 234°
2026-04-28 19:33 -34.58931 -58.90442 4988 ft 86 kts 234°
2026-04-28 19:33 -34.59331 -58.90987 4989 ft 87 kts 234°
2026-04-28 19:33 -34.59734 -58.91534 4988 ft 87 kts 234°
2026-04-28 19:34 -34.60126 -58.92068 4989 ft 86 kts 234°
2026-04-28 19:34 -34.60521 -58.92611 4989 ft 86 kts 234°
2026-04-28 19:34 -34.60916 -58.93151 4988 ft 85 kts 234°
2026-04-28 19:34 -34.61308 -58.93685 4989 ft 85 kts 234°
2026-04-28 19:35 -34.61702 -58.94224 4986 ft 86 kts 234°
2026-04-28 19:35 -34.62101 -58.94768 4989 ft 87 kts 233°
2026-04-28 19:35 -34.62503 -58.95317 4988 ft 86 kts 233°
2026-04-28 19:35 -34.62899 -58.95859 4986 ft 86 kts 234°
2026-04-28 19:36 -34.63296 -58.96399 4988 ft 85 kts 233°
2026-04-28 19:36 -34.63688 -58.96936 4990 ft 85 kts 234°
2026-04-28 19:36 -34.64083 -58.97475 4988 ft 85 kts 233°
2026-04-28 19:36 -34.64482 -58.98021 4989 ft 87 kts 233°
2026-04-28 19:37 -34.64882 -58.98568 4989 ft 87 kts 234°
2026-04-28 19:37 -34.65148 -58.98930 4986 ft 86 kts 234°
2026-04-28 19:37 -34.65672 -58.99647 4987 ft 86 kts 233°
2026-04-28 19:37 -34.66069 -59.00192 4989 ft 87 kts 234°
2026-04-28 19:38 -34.66471 -59.00740 4992 ft 87 kts 234°
2026-04-28 19:38 -34.66876 -59.01293 4991 ft 88 kts 233°
2026-04-28 19:38 -34.67281 -59.01849 4989 ft 88 kts 233°
2026-04-28 19:38 -34.67684 -59.02400 4987 ft 86 kts 233°
2026-04-28 19:39 -34.68081 -59.02942 4985 ft 85 kts 234°
2026-04-28 19:39 -34.68409 -59.03520 4980 ft 83 kts 249°
2026-04-28 19:39 -34.68614 -59.04176 4980 ft 83 kts 249°
2026-04-28 19:39 -34.68826 -59.04823 4981 ft 82 kts 250°
2026-04-28 19:40 -34.69039 -59.05479 4983 ft 84 kts 250°
2026-04-28 19:40 -34.69256 -59.06142 4979 ft 84 kts 250°
2026-04-28 19:40 -34.69470 -59.06799 4977 ft 84 kts 250°
2026-04-28 19:40 -34.69680 -59.07447 4977 ft 83 kts 249°
2026-04-28 19:41 -34.69896 -59.08104 4979 ft 84 kts 249°
2026-04-28 19:41 -34.70112 -59.08767 4984 ft 85 kts 250°
2026-04-28 19:41 -34.70326 -59.09431 4985 ft 84 kts 250°
2026-04-28 19:41 -34.70540 -59.10087 4983 ft 83 kts 249°
2026-04-28 19:42 -34.70753 -59.10737 4981 ft 83 kts 250°
2026-04-28 19:42 -34.70963 -59.11378 4982 ft 83 kts 249°
2026-04-28 19:42 -34.71174 -59.12029 4978 ft 84 kts 249°
2026-04-28 19:42 -34.71317 -59.12468 4980 ft 84 kts 249°
2026-04-28 19:43 -34.71599 -59.13335 4981 ft 83 kts 250°
2026-04-28 19:43 -34.71812 -59.13990 4978 ft 84 kts 249°
2026-04-28 19:43 -34.72024 -59.14644 4974 ft 83 kts 249°
2026-04-28 19:43 -34.72234 -59.15290 4976 ft 82 kts 250°
2026-04-28 19:44 -34.72447 -59.15943 4977 ft 83 kts 249°
2026-04-28 19:44 -34.72659 -59.16597 4976 ft 83 kts 250°
2026-04-28 19:44 -34.72874 -59.17259 4976 ft 84 kts 249°
2026-04-28 19:44 -34.73086 -59.17916 4973 ft 83 kts 249°
2026-04-28 19:45 -34.73297 -59.18560 4975 ft 83 kts 249°
2026-04-28 19:45 -34.73510 -59.19218 4981 ft 85 kts 249°
2026-04-28 19:45 -34.73727 -59.19882 4975 ft 84 kts 250°
2026-04-28 19:45 -34.73938 -59.20535 4973 ft 82 kts 249°
2026-04-28 19:46 -34.74149 -59.21183 4975 ft 83 kts 249°
2026-04-28 19:46 -34.74360 -59.21832 4971 ft 83 kts 249°
2026-04-28 19:46 -34.74571 -59.22483 4971 ft 82 kts 249°
2026-04-28 19:46 -34.74712 -59.22921 4973 ft 83 kts 249°
2026-04-28 19:47 -34.74993 -59.23788 4975 ft 83 kts 249°
2026-04-28 19:47 -34.75134 -59.24223 4972 ft 83 kts 249°
2026-04-28 19:47 -34.75346 -59.24876 4972 ft 83 kts 249°
2026-04-28 19:47 -34.75560 -59.25536 4976 ft 84 kts 249°
2026-04-28 19:48 -34.75775 -59.26199 4979 ft 84 kts 249°
2026-04-28 19:48 -34.75987 -59.26855 4975 ft 83 kts 249°
2026-04-28 19:48 -34.76197 -59.27503 4973 ft 82 kts 249°
2026-04-28 19:48 -34.76406 -59.28148 4968 ft 82 kts 249°
2026-04-28 19:49 -34.76615 -59.28793 4973 ft 82 kts 249°
2026-04-28 19:49 -34.76825 -59.29442 4972 ft 83 kts 249°
2026-04-28 19:49 -34.77036 -59.30096 4971 ft 83 kts 249°
2026-04-28 19:49 -34.77246 -59.30744 4970 ft 82 kts 249°
2026-04-28 19:50 -34.77665 -59.32038 4974 ft 83 kts 249°
2026-04-28 19:50 -34.77876 -59.32691 4976 ft 83 kts 250°
2026-04-28 19:50 -34.78085 -59.33339 4974 ft 82 kts 250°
2026-04-28 19:51 -34.78291 -59.33976 4974 ft 82 kts 250°
2026-04-28 19:51 -34.78501 -59.34625 4973 ft 83 kts 249°
2026-04-28 19:51 -34.78713 -59.35283 4979 ft 84 kts 249°
2026-04-28 19:51 -34.78927 -59.35946 4978 ft 84 kts 249°
2026-04-28 19:52 -34.79142 -59.36612 4986 ft 84 kts 249°
2026-04-28 19:52 -34.79357 -59.37276 4981 ft 84 kts 249°
2026-04-28 19:52 -34.79571 -59.37945 4984 ft 85 kts 249°
2026-04-28 19:52 -34.79785 -59.38606 4989 ft 84 kts 249°
2026-04-28 19:53 -34.79999 -59.39268 4987 ft 83 kts 249°
2026-04-28 19:53 -34.80211 -59.39924 4987 ft 83 kts 249°
2026-04-28 19:53 -34.80423 -59.40581 4987 ft 84 kts 249°
2026-04-28 19:53 -34.80635 -59.41237 4981 ft 83 kts 250°
2026-04-28 19:54 -34.80844 -59.41887 4976 ft 82 kts 250°
2026-04-28 19:54 -34.81054 -59.42536 4978 ft 83 kts 250°
2026-04-28 19:54 -34.81263 -59.43188 4975 ft 83 kts 250°
2026-04-28 19:54 -34.81476 -59.43847 4973 ft 84 kts 250°
2026-04-28 19:55 -34.81690 -59.44510 4977 ft 84 kts 250°
2026-04-28 19:55 -34.81903 -59.45175 4977 ft 84 kts 249°
2026-04-28 19:55 -34.82117 -59.45840 4977 ft 85 kts 249°
2026-04-28 19:55 -34.82331 -59.46503 4978 ft 84 kts 249°
2026-04-28 19:56 -34.82546 -59.47172 4979 ft 85 kts 249°
2026-04-28 19:56 -34.82759 -59.47835 4975 ft 84 kts 249°
2026-04-28 19:56 -34.82970 -59.48492 4975 ft 83 kts 249°
2026-04-28 19:56 -34.83182 -59.49152 4976 ft 84 kts 249°
2026-04-28 19:57 -34.83397 -59.49821 4978 ft 85 kts 250°
2026-04-28 19:57 -34.83610 -59.50482 4979 ft 85 kts 250°
2026-04-28 19:57 -34.83824 -59.51150 4980 ft 85 kts 250°
2026-04-28 19:57 -34.84039 -59.51820 4980 ft 85 kts 250°
2026-04-28 19:58 -34.84255 -59.52487 4977 ft 85 kts 250°
2026-04-28 19:58 -34.84468 -59.53152 4975 ft 84 kts 249°
2026-04-28 19:58 -34.84680 -59.53815 4972 ft 84 kts 249°
2026-04-28 19:58 -34.84893 -59.54478 4973 ft 84 kts 249°
2026-04-28 19:59 -34.85105 -59.55140 4966 ft 84 kts 249°
2026-04-28 19:59 -34.85318 -59.55801 4971 ft 84 kts 249°
2026-04-28 19:59 -34.85532 -59.56470 4969 ft 85 kts 249°
2026-04-28 19:59 -34.85750 -59.57147 4973 ft 86 kts 249°
2026-04-28 20:00 -34.85965 -59.57819 4975 ft 85 kts 249°
2026-04-28 20:00 -34.86180 -59.58489 4973 ft 85 kts 249°
2026-04-28 20:00 -34.86391 -59.59150 4972 ft 85 kts 249°
2026-04-28 20:00 -34.86606 -59.59819 4973 ft 85 kts 249°
2026-04-28 20:01 -34.86820 -59.60487 4971 ft 84 kts 249°
2026-04-28 20:01 -34.87031 -59.61149 4968 ft 84 kts 249°
2026-04-28 20:01 -34.87243 -59.61808 4966 ft 83 kts 249°
2026-04-28 20:01 -34.87455 -59.62469 4967 ft 84 kts 249°
2026-04-28 20:02 -34.87667 -59.63134 4969 ft 84 kts 249°
2026-04-28 20:02 -34.87880 -59.63801 4971 ft 84 kts 249°
2026-04-28 20:02 -34.88092 -59.64465 4968 ft 84 kts 249°
2026-04-28 20:02 -34.88304 -59.65125 4971 ft 84 kts 249°
2026-04-28 20:03 -34.88517 -59.65789 4973 ft 84 kts 250°
2026-04-28 20:03 -34.88729 -59.66456 4964 ft 84 kts 250°
2026-04-28 20:03 -34.88942 -59.67121 4968 ft 84 kts 249°
2026-04-28 20:03 -34.89150 -59.67773 4968 ft 83 kts 249°
2026-04-28 20:04 -34.89360 -59.68432 4969 ft 84 kts 249°
2026-04-28 20:04 -34.89573 -59.69094 4970 ft 84 kts 249°
2026-04-28 20:04 -34.89785 -59.69760 4973 ft 85 kts 250°
2026-04-28 20:04 -34.89999 -59.70435 4976 ft 85 kts 249°
2026-04-28 20:05 -34.90215 -59.71108 4978 ft 85 kts 249°
2026-04-28 20:05 -34.90428 -59.71776 4980 ft 85 kts 249°
2026-04-28 20:05 -34.90643 -59.72448 4984 ft 85 kts 250°
2026-04-28 20:05 -34.90858 -59.73124 4978 ft 85 kts 250°
2026-04-28 20:06 -34.91072 -59.73792 4976 ft 84 kts 249°
2026-04-28 20:06 -34.91283 -59.74453 4969 ft 84 kts 249°
2026-04-28 20:06 -34.91494 -59.75115 4968 ft 84 kts 250°
2026-04-28 20:06 -34.91703 -59.75774 4969 ft 84 kts 250°
2026-04-28 20:07 -34.91916 -59.76440 4969 ft 85 kts 249°
2026-04-28 20:07 -34.92061 -59.76896 4968 ft 86 kts 249°
2026-04-28 20:07 -34.92349 -59.77800 4975 ft 86 kts 250°
2026-04-28 20:07 -34.92564 -59.78477 4977 ft 85 kts 250°
2026-04-28 20:08 -34.92778 -59.79147 4972 ft 85 kts 250°
2026-04-28 20:08 -34.92991 -59.79816 4972 ft 84 kts 250°
2026-04-28 20:08 -34.93203 -59.80483 4971 ft 84 kts 250°
2026-04-28 20:08 -34.93414 -59.81148 4967 ft 84 kts 250°
2026-04-28 20:09 -34.93627 -59.81821 4966 ft 86 kts 250°
2026-04-28 20:09 -34.93843 -59.82500 4971 ft 86 kts 250°
2026-04-28 20:09 -34.94062 -59.83184 4975 ft 86 kts 250°
2026-04-28 20:09 -34.94278 -59.83865 4975 ft 87 kts 250°
2026-04-28 20:10 -34.94497 -59.84553 4980 ft 87 kts 250°
2026-04-28 20:10 -34.94712 -59.85233 4975 ft 85 kts 249°
2026-04-28 20:10 -34.94926 -59.85903 4975 ft 85 kts 250°
2026-04-28 20:10 -34.95140 -59.86576 4971 ft 86 kts 249°
2026-04-28 20:11 -34.95356 -59.87256 4975 ft 86 kts 250°
2026-04-28 20:11 -34.95569 -59.87930 4971 ft 86 kts 250°
2026-04-28 20:11 -34.95784 -59.88607 4973 ft 85 kts 250°
2026-04-28 20:11 -34.95999 -59.89283 4977 ft 86 kts 249°
2026-04-28 20:12 -34.96214 -59.89963 4976 ft 86 kts 250°
2026-04-28 20:12 -34.96429 -59.90639 4974 ft 85 kts 249°
2026-04-28 20:12 -34.96642 -59.91313 4976 ft 86 kts 249°
2026-04-28 20:12 -34.96785 -59.91765 4977 ft 86 kts 250°
2026-04-28 20:13 -34.97072 -59.92670 4972 ft 86 kts 250°
2026-04-28 20:13 -34.97285 -59.93342 4974 ft 84 kts 250°
2026-04-28 20:13 -34.97497 -59.94009 4975 ft 84 kts 250°
2026-04-28 20:13 -34.97708 -59.94679 4977 ft 85 kts 250°
2026-04-28 20:14 -34.97921 -59.95347 4975 ft 84 kts 250°
2026-04-28 20:14 -34.98132 -59.96015 4972 ft 84 kts 250°
2026-04-28 20:14 -34.98342 -59.96681 4974 ft 84 kts 250°
2026-04-28 20:14 -34.98552 -59.97344 4972 ft 84 kts 250°
2026-04-28 20:15 -34.98765 -59.98016 4969 ft 86 kts 250°
2026-04-28 20:15 -34.98978 -59.98690 4971 ft 85 kts 250°
2026-04-28 20:15 -34.99189 -59.99358 4971 ft 84 kts 250°
2026-04-28 20:15 -34.99400 -60.00027 4968 ft 85 kts 250°
2026-04-28 20:16 -34.99613 -60.00698 4964 ft 84 kts 250°
2026-04-28 20:16 -34.99822 -60.01360 4965 ft 84 kts 250°
2026-04-28 20:16 -35.00033 -60.02025 4959 ft 84 kts 250°
2026-04-28 20:16 -35.00242 -60.02690 4959 ft 84 kts 250°
2026-04-28 20:17 -35.00452 -60.03355 4957 ft 84 kts 250°
2026-04-28 20:17 -35.00658 -60.04008 4957 ft 83 kts 250°
2026-04-28 20:17 -35.00869 -60.04675 4957 ft 85 kts 250°
2026-04-28 20:17 -35.01082 -60.05350 4960 ft 85 kts 250°
2026-04-28 20:18 -35.01295 -60.06025 4960 ft 85 kts 250°
2026-04-28 20:18 -35.01437 -60.06477 4957 ft 85 kts 250°
2026-04-28 20:18 -35.01720 -60.07373 4961 ft 85 kts 250°
2026-04-28 20:18 -35.01933 -60.08048 4958 ft 85 kts 251°
2026-04-28 20:19 -35.02004 -60.08275 4954 ft 85 kts 250°
2026-04-28 20:19 -35.02356 -60.09389 4960 ft 85 kts 250°
2026-04-28 20:19 -35.02428 -60.09616 4960 ft 85 kts 251°
2026-04-28 20:20 -35.02957 -60.11302 4955 ft 85 kts 250°
2026-04-28 20:20 -35.03170 -60.11977 4959 ft 86 kts 250°
2026-04-28 20:20 -35.03383 -60.12654 4958 ft 85 kts 250°
2026-04-28 20:20 -35.03594 -60.13321 4961 ft 85 kts 250°
2026-04-28 20:21 -35.03809 -60.14005 4960 ft 85 kts 250°
2026-04-28 20:21 -35.04024 -60.14691 4867 ft 90 kts 250°
2026-04-28 20:21 -35.04252 -60.15415 4750 ft 92 kts 250°
2026-04-28 20:21 -35.04482 -60.16147 4634 ft 93 kts 250°
2026-04-28 20:22 -35.04716 -60.16891 4518 ft 95 kts 250°
2026-04-28 20:22 -35.04952 -60.17644 4396 ft 95 kts 250°
2026-04-28 20:22 -35.05190 -60.18400 4281 ft 96 kts 250°
2026-04-28 20:22 -35.05427 -60.19156 4163 ft 91 kts 251°
2026-04-28 20:23 -35.05651 -60.19869 4020 ft 90 kts 251°
2026-04-28 20:23 -35.05871 -60.20570 3895 ft 90 kts 252°
2026-04-28 20:23 -35.06094 -60.21277 3759 ft 88 kts 252°
2026-04-28 20:23 -35.06312 -60.21973 3625 ft 88 kts 251°
2026-04-28 20:24 -35.06533 -60.22681 3496 ft 90 kts 251°
2026-04-28 20:24 -35.06758 -60.23396 3364 ft 91 kts 251°
2026-04-28 20:24 -35.06985 -60.24120 3234 ft 92 kts 251°
2026-04-28 20:24 -35.07212 -60.24845 3108 ft 92 kts 252°
2026-04-28 20:25 -35.07440 -60.25570 2974 ft 91 kts 253°
2026-04-28 20:25 -35.07665 -60.26291 2850 ft 91 kts 252°
2026-04-28 20:25 -35.07892 -60.27018 2725 ft 92 kts 253°
2026-04-28 20:25 -35.08121 -60.27745 2597 ft 92 kts 252°
2026-04-28 20:26 -35.08349 -60.28473 2473 ft 92 kts 253°
2026-04-28 20:26 -35.08578 -60.29205 2336 ft 92 kts 254°
2026-04-28 20:26 -35.08805 -60.29933 2208 ft 92 kts 255°
2026-04-28 20:26 -35.09033 -60.30663 2086 ft 93 kts 253°
2026-04-28 20:27 -35.09267 -60.31407 1962 ft 95 kts 253°
2026-04-28 20:27 -35.09502 -60.32158 1841 ft 93 kts 254°
2026-04-28 20:27 -35.09733 -60.32894 1716 ft 93 kts 253°
2026-04-28 20:27 -35.09964 -60.33637 1591 ft 93 kts 253°
2026-04-28 20:28 -35.10194 -60.34375 1459 ft 93 kts 253°
2026-04-28 20:28 -35.10426 -60.35116 1334 ft 93 kts 253°
2026-04-28 20:28 -35.10654 -60.35848 1207 ft 91 kts 252°
2026-04-28 20:28 -35.10879 -60.36571 1078 ft 92 kts 252°
2026-04-28 20:29 -35.11110 -60.37302 1012 ft 93 kts 254°
2026-04-28 20:29 -35.11340 -60.38044 1014 ft 93 kts 255°
2026-04-28 20:29 -35.11568 -60.38776 1008 ft 94 kts 253°
2026-04-28 20:29 -35.11801 -60.39523 1000 ft 93 kts 253°
2026-04-28 20:30 -35.12027 -60.40249 1009 ft 92 kts 253°
2026-04-28 20:30 -35.12257 -60.40982 1012 ft 95 kts 253°
2026-04-28 20:30 -35.12489 -60.41728 1009 ft 92 kts 251°
2026-04-28 20:30 -35.12716 -60.42455 1013 ft 93 kts 253°
2026-04-28 20:31 -35.12949 -60.43206 1007 ft 95 kts 253°
2026-04-28 20:31 -35.13183 -60.43954 1014 ft 92 kts 252°
2026-04-28 20:31 -35.13408 -60.44678 1018 ft 93 kts 253°
2026-04-28 20:31 -35.13641 -60.45425 1008 ft 93 kts 252°
2026-04-28 20:32 -35.13861 -60.46160 1009 ft 93 kts 253°
2026-04-28 20:32 -35.14098 -60.46901 1014 ft 94 kts 248°
2026-04-28 20:32 -35.14527 -60.47514 1014 ft 97 kts 231°
2026-04-28 20:32 -35.14964 -60.48136 1013 ft 96 kts 233°
2026-04-28 20:33 -35.15398 -60.48740 1012 ft 88 kts 232°
2026-04-28 20:33 -35.15778 -60.49222 958 ft 73 kts 232°
2026-04-28 20:33 -35.16234 -60.49310 950 ft 86 kts 134°
2026-04-28 20:33 -35.16144 -60.48667 872 ft 76 kts 44°
2026-04-28 20:34 -35.15722 -60.48358 622 ft 70 kts
2026-04-28 20:34 -35.15277 -60.48226 405 ft 64 kts
2026-04-28 20:34 -35.14841 -60.48097 219 ft 66 kts
2026-04-28 20:34 -35.14464 -60.47984 186 ft 44 kts 10°
2026-04-28 20:35 -35.14338 -60.47951 196 ft 8 kts 10°
2026-04-28 20:35 -35.14294 -60.47940 186 ft 10 kts
2026-04-28 20:35 -35.14251 -60.47925 185 ft 4 kts 18°
2026-04-28 20:35 -35.14209 -60.47913 184 ft 9 kts 12°
2026-04-28 20:36 -35.14135 -60.47898 183 ft 12 kts
2026-04-28 20:36 -35.14043 -60.47903 192 ft 15 kts 310°
2026-04-28 20:36 -35.14027 -60.47972 188 ft 6 kts 276°
2026-04-28 20:36 -35.14023 -60.48044 185 ft 7 kts 277°
2026-04-28 20:37 -35.14021 -60.48083 185 ft 6 kts 265°
2026-04-28 20:37 -35.14016 -60.48140 185 ft 0 kts 270°